#datetime,building,power
2023-05-12T00:00:00,mfh,23.80
2023-05-12T00:01:00,mfh,23.76
2023-05-12T00:02:00,mfh,24.32
2023-05-12T00:03:00,mfh,24.19
2023-05-12T00:04:00,mfh,24.15
2023-05-12T00:05:00,mfh,24.15
2023-05-12T00:06:00,mfh,25.09
2023-05-12T00:07:00,mfh,23.48
2023-05-12T00:08:00,mfh,24.19
2023-05-12T00:09:00,mfh,23.49
2023-05-12T00:10:00,mfh,23.69
2023-05-12T00:11:00,mfh,24.35
2023-05-12T00:12:00,mfh,24.45
2023-05-12T00:13:00,mfh,24.28
2023-05-12T00:14:00,mfh,24.36
2023-05-12T00:15:00,mfh,24.33
2023-05-12T00:16:00,mfh,24.10
2023-05-12T00:17:00,mfh,23.73
2023-05-12T00:18:00,mfh,23.73
2023-05-12T00:19:00,mfh,24.85
2023-05-12T00:20:00,mfh,24.47
2023-05-12T00:21:00,mfh,24.61
2023-05-12T00:22:00,mfh,24.77
2023-05-12T00:23:00,mfh,25.32
2023-05-12T00:24:00,mfh,24.57
2023-05-12T00:25:00,mfh,23.73
2023-05-12T00:26:00,mfh,23.99
2023-05-12T00:27:00,mfh,23.73
2023-05-12T00:28:00,mfh,24.41
2023-05-12T00:29:00,mfh,24.39
2023-05-12T00:30:00,mfh,24.42
2023-05-12T00:31:00,mfh,24.44
2023-05-12T00:32:00,mfh,24.52
2023-05-12T00:33:00,mfh,24.65
2023-05-12T00:34:00,mfh,23.92
2023-05-12T00:35:00,mfh,23.55
2023-05-12T00:36:00,mfh,23.12
2023-05-12T00:37:00,mfh,23.83
2023-05-12T00:38:00,mfh,23.57
2023-05-12T00:39:00,mfh,23.59
2023-05-12T00:40:00,mfh,23.57
2023-05-12T00:41:00,mfh,28.85
2023-05-12T00:42:00,mfh,35.65
2023-05-12T00:43:00,mfh,36.73
2023-05-12T00:44:00,mfh,36.61
2023-05-12T00:45:00,mfh,36.48
2023-05-12T00:46:00,mfh,36.83
2023-05-12T00:47:00,mfh,36.66
2023-05-12T00:48:00,mfh,36.56
2023-05-12T00:49:00,mfh,38.05
2023-05-12T00:50:00,mfh,30.21
2023-05-12T00:51:00,mfh,29.89
2023-05-12T00:52:00,mfh,29.50
2023-05-12T00:53:00,mfh,29.60
2023-05-12T00:54:00,mfh,29.08
2023-05-12T00:55:00,mfh,23.68
2023-05-12T00:56:00,mfh,24.21
2023-05-12T00:57:00,mfh,23.83
2023-05-12T00:58:00,mfh,23.72
2023-05-12T00:59:00,mfh,23.76
2023-05-12T01:00:00,mfh,23.08
2023-05-12T01:01:00,mfh,23.10
2023-05-12T01:02:00,mfh,22.28
2023-05-12T01:03:00,mfh,22.40
2023-05-12T01:04:00,mfh,23.02
2023-05-12T01:05:00,mfh,23.03
2023-05-12T01:06:00,mfh,22.89
2023-05-12T01:07:00,mfh,23.02
2023-05-12T01:08:00,mfh,23.01
2023-05-12T01:09:00,mfh,22.32
2023-05-12T01:10:00,mfh,22.20
2023-05-12T01:11:00,mfh,22.14
2023-05-12T01:12:00,mfh,22.90
2023-05-12T01:13:00,mfh,22.93
2023-05-12T01:14:00,mfh,23.60
2023-05-12T01:15:00,mfh,22.96
2023-05-12T01:16:00,mfh,23.00
2023-05-12T01:17:00,mfh,22.70
2023-05-12T01:18:00,mfh,22.46
2023-05-12T01:19:00,mfh,22.54
2023-05-12T01:20:00,mfh,22.59
2023-05-12T01:21:00,mfh,23.13
2023-05-12T01:22:00,mfh,23.12
2023-05-12T01:23:00,mfh,23.17
2023-05-12T01:24:00,mfh,23.26
2023-05-12T01:25:00,mfh,23.24
2023-05-12T01:26:00,mfh,22.54
2023-05-12T01:27:00,mfh,22.63
2023-05-12T01:28:00,mfh,22.53
2023-05-12T01:29:00,mfh,22.52
2023-05-12T01:30:00,mfh,23.29
2023-05-12T01:31:00,mfh,23.29
2023-05-12T01:32:00,mfh,24.24
2023-05-12T01:33:00,mfh,23.20
2023-05-12T01:34:00,mfh,23.92
2023-05-12T01:35:00,mfh,22.65
2023-05-12T01:36:00,mfh,22.64
2023-05-12T01:37:00,mfh,22.57
2023-05-12T01:38:00,mfh,22.56
2023-05-12T01:39:00,mfh,23.71
2023-05-12T01:40:00,mfh,23.21
2023-05-12T01:41:00,mfh,23.23
2023-05-12T01:42:00,mfh,23.41
2023-05-12T01:43:00,mfh,22.69
2023-05-12T01:44:00,mfh,22.48
2023-05-12T01:45:00,mfh,22.50
2023-05-12T01:46:00,mfh,22.48
2023-05-12T01:47:00,mfh,23.09
2023-05-12T01:48:00,mfh,23.08
2023-05-12T01:49:00,mfh,23.06
2023-05-12T01:50:00,mfh,23.13
2023-05-12T01:51:00,mfh,23.12
2023-05-12T01:52:00,mfh,24.06
2023-05-12T01:53:00,mfh,22.60
2023-05-12T01:54:00,mfh,22.50
2023-05-12T01:55:00,mfh,22.49
2023-05-12T01:56:00,mfh,23.08
2023-05-12T01:57:00,mfh,23.01
2023-05-12T01:58:00,mfh,22.94
2023-05-12T01:59:00,mfh,22.92
2023-05-12T02:00:00,mfh,23.90
2023-05-12T02:01:00,mfh,22.31
2023-05-12T02:02:00,mfh,22.43
2023-05-12T02:03:00,mfh,22.35
2023-05-12T02:04:00,mfh,23.06
2023-05-12T02:05:00,mfh,23.09
2023-05-12T02:06:00,mfh,23.15
2023-05-12T02:07:00,mfh,23.06
2023-05-12T02:08:00,mfh,23.09
2023-05-12T02:09:00,mfh,22.98
2023-05-12T02:10:00,mfh,22.34
2023-05-12T02:11:00,mfh,22.37
2023-05-12T02:12:00,mfh,22.36
2023-05-12T02:13:00,mfh,23.00
2023-05-12T02:14:00,mfh,22.94
2023-05-12T02:15:00,mfh,22.99
2023-05-12T02:16:00,mfh,23.14
2023-05-12T02:17:00,mfh,23.20
2023-05-12T02:18:00,mfh,22.48
2023-05-12T02:19:00,mfh,22.32
2023-05-12T02:20:00,mfh,22.41
2023-05-12T02:21:00,mfh,22.99
2023-05-12T02:22:00,mfh,23.70
2023-05-12T02:23:00,mfh,23.29
2023-05-12T02:24:00,mfh,23.57
2023-05-12T02:25:00,mfh,23.02
2023-05-12T02:26:00,mfh,23.08
2023-05-12T02:27:00,mfh,23.06
2023-05-12T02:28:00,mfh,22.59
2023-05-12T02:29:00,mfh,23.33
2023-05-12T02:30:00,mfh,22.23
2023-05-12T02:31:00,mfh,22.84
2023-05-12T02:32:00,mfh,22.90
2023-05-12T02:33:00,mfh,23.02
2023-05-12T02:34:00,mfh,23.00
2023-05-12T02:35:00,mfh,22.35
2023-05-12T02:36:00,mfh,22.26
2023-05-12T02:37:00,mfh,22.97
2023-05-12T02:38:00,mfh,22.51
2023-05-12T02:39:00,mfh,23.25
2023-05-12T02:40:00,mfh,23.20
2023-05-12T02:41:00,mfh,23.13
2023-05-12T02:42:00,mfh,23.07
2023-05-12T02:43:00,mfh,23.43
2023-05-12T02:44:00,mfh,22.38
2023-05-12T02:45:00,mfh,22.37
2023-05-12T02:46:00,mfh,22.43
2023-05-12T02:47:00,mfh,22.55
2023-05-12T02:48:00,mfh,23.87
2023-05-12T02:49:00,mfh,23.16
2023-05-12T02:50:00,mfh,23.21
2023-05-12T02:51:00,mfh,23.21
2023-05-12T02:52:00,mfh,23.15
2023-05-12T02:53:00,mfh,22.80
2023-05-12T02:54:00,mfh,22.77
2023-05-12T02:55:00,mfh,22.41
2023-05-12T02:56:00,mfh,22.34
2023-05-12T02:57:00,mfh,22.94
2023-05-12T02:58:00,mfh,23.02
2023-05-12T02:59:00,mfh,22.97
2023-05-12T03:00:00,mfh,23.01
2023-05-12T03:01:00,mfh,24.68
2023-05-12T03:02:00,mfh,23.84
2023-05-12T03:03:00,mfh,23.93
2023-05-12T03:04:00,mfh,23.98
2023-05-12T03:05:00,mfh,23.89
2023-05-12T03:06:00,mfh,25.05
2023-05-12T03:07:00,mfh,22.92
2023-05-12T03:08:00,mfh,22.90
2023-05-12T03:09:00,mfh,22.92
2023-05-12T03:10:00,mfh,22.33
2023-05-12T03:11:00,mfh,22.70
2023-05-12T03:12:00,mfh,22.32
2023-05-12T03:13:00,mfh,22.24
2023-05-12T03:14:00,mfh,22.99
2023-05-12T03:15:00,mfh,22.91
2023-05-12T03:16:00,mfh,22.98
2023-05-12T03:17:00,mfh,22.91
2023-05-12T03:18:00,mfh,22.89
2023-05-12T03:19:00,mfh,22.43
2023-05-12T03:20:00,mfh,22.30
2023-05-12T03:21:00,mfh,22.32
2023-05-12T03:22:00,mfh,22.64
2023-05-12T03:23:00,mfh,22.88
2023-05-12T03:24:00,mfh,22.82
2023-05-12T03:25:00,mfh,22.94
2023-05-12T03:26:00,mfh,23.08
2023-05-12T03:27:00,mfh,22.99
2023-05-12T03:28:00,mfh,22.32
2023-05-12T03:29:00,mfh,22.23
2023-05-12T03:30:00,mfh,22.23
2023-05-12T03:31:00,mfh,22.77
2023-05-12T03:32:00,mfh,23.28
2023-05-12T03:33:00,mfh,23.23
2023-05-12T03:34:00,mfh,23.17
2023-05-12T03:35:00,mfh,23.48
2023-05-12T03:36:00,mfh,23.64
2023-05-12T03:37:00,mfh,23.04
2023-05-12T03:38:00,mfh,22.62
2023-05-12T03:39:00,mfh,22.60
2023-05-12T03:40:00,mfh,22.66
2023-05-12T03:41:00,mfh,23.40
2023-05-12T03:42:00,mfh,23.47
2023-05-12T03:43:00,mfh,23.45
2023-05-12T03:44:00,mfh,23.46
2023-05-12T03:45:00,mfh,23.41
2023-05-12T03:46:00,mfh,22.82
2023-05-12T03:47:00,mfh,22.81
2023-05-12T03:48:00,mfh,22.80
2023-05-12T03:49:00,mfh,23.52
2023-05-12T03:50:00,mfh,23.51
2023-05-12T03:51:00,mfh,23.60
2023-05-12T03:52:00,mfh,23.85
2023-05-12T03:53:00,mfh,23.56
2023-05-12T03:54:00,mfh,22.86
2023-05-12T03:55:00,mfh,22.79
2023-05-12T03:56:00,mfh,22.79
2023-05-12T03:57:00,mfh,22.65
2023-05-12T03:58:00,mfh,22.66
2023-05-12T03:59:00,mfh,23.34
2023-05-12T04:00:00,mfh,23.41
2023-05-12T04:01:00,mfh,23.45
2023-05-12T04:02:00,mfh,23.42
2023-05-12T04:03:00,mfh,22.82
2023-05-12T04:04:00,mfh,22.65
2023-05-12T04:05:00,mfh,22.65
2023-05-12T04:06:00,mfh,23.03
2023-05-12T04:07:00,mfh,23.56
2023-05-12T04:08:00,mfh,23.81
2023-05-12T04:09:00,mfh,23.65
2023-05-12T04:10:00,mfh,32.24
2023-05-12T04:11:00,mfh,34.36
2023-05-12T04:12:00,mfh,52.77
2023-05-12T04:13:00,mfh,55.18
2023-05-12T04:14:00,mfh,55.50
2023-05-12T04:15:00,mfh,55.06
2023-05-12T04:16:00,mfh,55.24
2023-05-12T04:17:00,mfh,55.18
2023-05-12T04:18:00,mfh,55.11
2023-05-12T04:19:00,mfh,55.09
2023-05-12T04:20:00,mfh,55.01
2023-05-12T04:21:00,mfh,53.61
2023-05-12T04:22:00,mfh,53.26
2023-05-12T04:23:00,mfh,53.08
2023-05-12T04:24:00,mfh,53.70
2023-05-12T04:25:00,mfh,54.20
2023-05-12T04:26:00,mfh,54.11
2023-05-12T04:27:00,mfh,54.59
2023-05-12T04:28:00,mfh,48.99
2023-05-12T04:29:00,mfh,48.95
2023-05-12T04:30:00,mfh,48.27
2023-05-12T04:31:00,mfh,41.41
2023-05-12T04:32:00,mfh,55.79
2023-05-12T04:33:00,mfh,56.28
2023-05-12T04:34:00,mfh,56.71
2023-05-12T04:35:00,mfh,56.36
2023-05-12T04:36:00,mfh,56.16
2023-05-12T04:37:00,mfh,55.92
2023-05-12T04:38:00,mfh,74.66
2023-05-12T04:39:00,mfh,74.14
2023-05-12T04:40:00,mfh,74.55
2023-05-12T04:41:00,mfh,73.66
2023-05-12T04:42:00,mfh,73.21
2023-05-12T04:43:00,mfh,73.47
2023-05-12T04:44:00,mfh,73.36
2023-05-12T04:45:00,mfh,73.14
2023-05-12T04:46:00,mfh,72.96
2023-05-12T04:47:00,mfh,72.04
2023-05-12T04:48:00,mfh,71.87
2023-05-12T04:49:00,mfh,71.70
2023-05-12T04:50:00,mfh,71.49
2023-05-12T04:51:00,mfh,72.02
2023-05-12T04:52:00,mfh,71.97
2023-05-12T04:53:00,mfh,72.51
2023-05-12T04:54:00,mfh,71.78
2023-05-12T04:55:00,mfh,72.30
2023-05-12T04:56:00,mfh,65.92
2023-05-12T04:57:00,mfh,65.88
2023-05-12T04:58:00,mfh,59.55
2023-05-12T04:59:00,mfh,59.66
2023-05-12T05:00:00,mfh,60.25
2023-05-12T05:01:00,mfh,76.61
2023-05-12T05:02:00,mfh,80.20
2023-05-12T05:03:00,mfh,79.96
2023-05-12T05:04:00,mfh,80.80
2023-05-12T05:05:00,mfh,79.53
2023-05-12T05:06:00,mfh,79.56
2023-05-12T05:07:00,mfh,80.18
2023-05-12T05:08:00,mfh,79.73
2023-05-12T05:09:00,mfh,80.39
2023-05-12T05:10:00,mfh,80.85
2023-05-12T05:11:00,mfh,80.26
2023-05-12T05:12:00,mfh,81.33
2023-05-12T05:13:00,mfh,79.47
2023-05-12T05:14:00,mfh,79.62
2023-05-12T05:15:00,mfh,80.09
2023-05-12T05:16:00,mfh,79.64
2023-05-12T05:17:00,mfh,85.06
2023-05-12T05:18:00,mfh,85.65
2023-05-12T05:19:00,mfh,88.00
2023-05-12T05:20:00,mfh,87.85
2023-05-12T05:21:00,mfh,87.77
2023-05-12T05:22:00,mfh,87.46
2023-05-12T05:23:00,mfh,87.28
2023-05-12T05:24:00,mfh,86.84
2023-05-12T05:25:00,mfh,87.05
2023-05-12T05:26:00,mfh,86.90
2023-05-12T05:27:00,mfh,86.84
2023-05-12T05:28:00,mfh,86.78
2023-05-12T05:29:00,mfh,86.77
2023-05-12T05:30:00,mfh,86.76
2023-05-12T05:31:00,mfh,86.43
2023-05-12T05:32:00,mfh,86.30
2023-05-12T05:33:00,mfh,86.24
2023-05-12T05:34:00,mfh,86.42
2023-05-12T05:35:00,mfh,86.49
2023-05-12T05:36:00,mfh,86.51
2023-05-12T05:37:00,mfh,86.53
2023-05-12T05:38:00,mfh,86.37
2023-05-12T05:39:00,mfh,86.05
2023-05-12T05:40:00,mfh,86.10
2023-05-12T05:41:00,mfh,86.08
2023-05-12T05:42:00,mfh,82.33
2023-05-12T05:43:00,mfh,82.68
2023-05-12T05:44:00,mfh,82.92
2023-05-12T05:45:00,mfh,83.38
2023-05-12T05:46:00,mfh,83.70
2023-05-12T05:47:00,mfh,83.41
2023-05-12T05:48:00,mfh,83.33
2023-05-12T05:49:00,mfh,83.05
2023-05-12T05:50:00,mfh,82.95
2023-05-12T05:51:00,mfh,83.34
2023-05-12T05:52:00,mfh,83.34
2023-05-12T05:53:00,mfh,83.10
2023-05-12T05:54:00,mfh,83.14
2023-05-12T05:55:00,mfh,83.14
2023-05-12T05:56:00,mfh,82.76
2023-05-12T05:57:00,mfh,82.77
2023-05-12T05:58:00,mfh,82.82
2023-05-12T05:59:00,mfh,82.72
2023-05-12T06:00:00,mfh,83.27
2023-05-12T06:01:00,mfh,85.00
2023-05-12T06:02:00,mfh,85.14
2023-05-12T06:03:00,mfh,84.97
2023-05-12T06:04:00,mfh,84.99
2023-05-12T06:05:00,mfh,83.30
2023-05-12T06:06:00,mfh,83.27
2023-05-12T06:07:00,mfh,83.20
2023-05-12T06:08:00,mfh,83.03
2023-05-12T06:09:00,mfh,83.00
2023-05-12T06:10:00,mfh,83.28
2023-05-12T06:11:00,mfh,83.43
2023-05-12T06:12:00,mfh,83.47
2023-05-12T06:13:00,mfh,86.55
2023-05-12T06:14:00,mfh,86.77
2023-05-12T06:15:00,mfh,88.22
2023-05-12T06:16:00,mfh,88.09
2023-05-12T06:17:00,mfh,87.95
2023-05-12T06:18:00,mfh,87.71
2023-05-12T06:19:00,mfh,87.77
2023-05-12T06:20:00,mfh,87.58
2023-05-12T06:21:00,mfh,87.67
2023-05-12T06:22:00,mfh,87.63
2023-05-12T06:23:00,mfh,87.57
2023-05-12T06:24:00,mfh,87.53
2023-05-12T06:25:00,mfh,87.54
2023-05-12T06:26:00,mfh,87.48
2023-05-12T06:27:00,mfh,87.49
2023-05-12T06:28:00,mfh,87.44
2023-05-12T06:29:00,mfh,87.26
2023-05-12T06:30:00,mfh,87.23
2023-05-12T06:31:00,mfh,87.15
2023-05-12T06:32:00,mfh,85.55
2023-05-12T06:33:00,mfh,86.06
2023-05-12T06:34:00,mfh,85.60
2023-05-12T06:35:00,mfh,85.62
2023-05-12T06:36:00,mfh,85.69
2023-05-12T06:37:00,mfh,85.64
2023-05-12T06:38:00,mfh,85.67
2023-05-12T06:39:00,mfh,85.80
2023-05-12T06:40:00,mfh,85.79
2023-05-12T06:41:00,mfh,85.60
2023-05-12T06:42:00,mfh,86.28
2023-05-12T06:43:00,mfh,87.28
2023-05-12T06:44:00,mfh,87.35
2023-05-12T06:45:00,mfh,87.38
2023-05-12T06:46:00,mfh,87.36
2023-05-12T06:47:00,mfh,87.30
2023-05-12T06:48:00,mfh,87.27
2023-05-12T06:49:00,mfh,87.18
2023-05-12T06:50:00,mfh,87.20
2023-05-12T06:51:00,mfh,87.06
2023-05-12T06:52:00,mfh,87.02
2023-05-12T06:53:00,mfh,87.00
2023-05-12T06:54:00,mfh,87.08
2023-05-12T06:55:00,mfh,87.03
2023-05-12T06:56:00,mfh,87.05
2023-05-12T06:57:00,mfh,87.08
2023-05-12T06:58:00,mfh,86.97
2023-05-12T06:59:00,mfh,84.26
2023-05-12T07:00:00,mfh,84.30
2023-05-12T07:01:00,mfh,84.24
2023-05-12T07:02:00,mfh,84.49
2023-05-12T07:03:00,mfh,84.20
2023-05-12T07:04:00,mfh,85.09
2023-05-12T07:05:00,mfh,84.23
2023-05-12T07:06:00,mfh,84.53
2023-05-12T07:07:00,mfh,84.50
2023-05-12T07:08:00,mfh,84.53
2023-05-12T07:09:00,mfh,84.45
2023-05-12T07:10:00,mfh,87.56
2023-05-12T07:11:00,mfh,87.33
2023-05-12T07:12:00,mfh,87.31
2023-05-12T07:13:00,mfh,87.39
2023-05-12T07:14:00,mfh,87.14
2023-05-12T07:15:00,mfh,87.16
2023-05-12T07:16:00,mfh,87.12
2023-05-12T07:17:00,mfh,87.11
2023-05-12T07:18:00,mfh,87.10
2023-05-12T07:19:00,mfh,87.20
2023-05-12T07:20:00,mfh,87.17
2023-05-12T07:21:00,mfh,87.18
2023-05-12T07:22:00,mfh,87.24
2023-05-12T07:23:00,mfh,87.16
2023-05-12T07:24:00,mfh,82.65
2023-05-12T07:25:00,mfh,82.33
2023-05-12T07:26:00,mfh,78.44
2023-05-12T07:27:00,mfh,78.58
2023-05-12T07:28:00,mfh,79.00
2023-05-12T07:29:00,mfh,80.07
2023-05-12T07:30:00,mfh,79.75
2023-05-12T07:31:00,mfh,79.79
2023-05-12T07:32:00,mfh,74.41
2023-05-12T07:33:00,mfh,74.48
2023-05-12T07:34:00,mfh,74.53
2023-05-12T07:35:00,mfh,73.62
2023-05-12T07:36:00,mfh,72.73
2023-05-12T07:37:00,mfh,73.85
2023-05-12T07:38:00,mfh,73.74
2023-05-12T07:39:00,mfh,74.67
2023-05-12T07:40:00,mfh,74.22
2023-05-12T07:41:00,mfh,74.62
2023-05-12T07:42:00,mfh,74.51
2023-05-12T07:43:00,mfh,74.77
2023-05-12T07:44:00,mfh,73.72
2023-05-12T07:45:00,mfh,80.52
2023-05-12T07:46:00,mfh,84.20
2023-05-12T07:47:00,mfh,84.19
2023-05-12T07:48:00,mfh,84.01
2023-05-12T07:49:00,mfh,83.81
2023-05-12T07:50:00,mfh,84.12
2023-05-12T07:51:00,mfh,83.95
2023-05-12T07:52:00,mfh,83.81
2023-05-12T07:53:00,mfh,83.85
2023-05-12T07:54:00,mfh,83.77
2023-05-12T07:55:00,mfh,84.06
2023-05-12T07:56:00,mfh,83.45
2023-05-12T07:57:00,mfh,83.39
2023-05-12T07:58:00,mfh,82.91
2023-05-12T07:59:00,mfh,82.95
2023-05-12T08:00:00,mfh,83.45
2023-05-12T08:01:00,mfh,83.50
2023-05-12T08:02:00,mfh,83.77
2023-05-12T08:03:00,mfh,83.75
2023-05-12T08:04:00,mfh,83.94
2023-05-12T08:05:00,mfh,83.73
2023-05-12T08:06:00,mfh,83.81
2023-05-12T08:07:00,mfh,83.78
2023-05-12T08:08:00,mfh,83.62
2023-05-12T08:09:00,mfh,83.49
2023-05-12T08:10:00,mfh,83.93
2023-05-12T08:11:00,mfh,85.64
2023-05-12T08:12:00,mfh,85.77
2023-05-12T08:13:00,mfh,86.12
2023-05-12T08:14:00,mfh,86.23
2023-05-12T08:15:00,mfh,86.01
2023-05-12T08:16:00,mfh,86.20
2023-05-12T08:17:00,mfh,86.34
2023-05-12T08:18:00,mfh,86.03
2023-05-12T08:19:00,mfh,85.99
2023-05-12T08:20:00,mfh,85.78
2023-05-12T08:21:00,mfh,85.64
2023-05-12T08:22:00,mfh,88.13
2023-05-12T08:23:00,mfh,88.54
2023-05-12T08:24:00,mfh,88.40
2023-05-12T08:25:00,mfh,88.27
2023-05-12T08:26:00,mfh,88.27
2023-05-12T08:27:00,mfh,88.23
2023-05-12T08:28:00,mfh,88.04
2023-05-12T08:29:00,mfh,87.96
2023-05-12T08:30:00,mfh,87.99
2023-05-12T08:31:00,mfh,87.98
2023-05-12T08:32:00,mfh,87.75
2023-05-12T08:33:00,mfh,87.72
2023-05-12T08:34:00,mfh,87.90
2023-05-12T08:35:00,mfh,87.86
2023-05-12T08:36:00,mfh,87.95
2023-05-12T08:37:00,mfh,87.87
2023-05-12T08:38:00,mfh,87.96
2023-05-12T08:39:00,mfh,88.31
2023-05-12T08:40:00,mfh,85.72
2023-05-12T08:41:00,mfh,84.47
2023-05-12T08:42:00,mfh,84.02
2023-05-12T08:43:00,mfh,83.86
2023-05-12T08:44:00,mfh,83.85
2023-05-12T08:45:00,mfh,84.30
2023-05-12T08:46:00,mfh,84.59
2023-05-12T08:47:00,mfh,84.28
2023-05-12T08:48:00,mfh,84.41
2023-05-12T08:49:00,mfh,84.42
2023-05-12T08:50:00,mfh,84.12
2023-05-12T08:51:00,mfh,84.30
2023-05-12T08:52:00,mfh,84.00
2023-05-12T08:53:00,mfh,87.96
2023-05-12T08:54:00,mfh,87.92
2023-05-12T08:55:00,mfh,87.69
2023-05-12T08:56:00,mfh,87.63
2023-05-12T08:57:00,mfh,87.70
2023-05-12T08:58:00,mfh,87.58
2023-05-12T08:59:00,mfh,87.55
2023-05-12T09:00:00,mfh,87.70
2023-05-12T09:01:00,mfh,87.46
2023-05-12T09:02:00,mfh,87.44
2023-05-12T09:03:00,mfh,87.32
2023-05-12T09:04:00,mfh,87.32
2023-05-12T09:05:00,mfh,87.46
2023-05-12T09:06:00,mfh,87.41
2023-05-12T09:07:00,mfh,87.34
2023-05-12T09:08:00,mfh,87.32
2023-05-12T09:09:00,mfh,87.32
2023-05-12T09:10:00,mfh,87.34
2023-05-12T09:11:00,mfh,84.99
2023-05-12T09:12:00,mfh,84.92
2023-05-12T09:13:00,mfh,84.94
2023-05-12T09:14:00,mfh,85.19
2023-05-12T09:15:00,mfh,85.11
2023-05-12T09:16:00,mfh,84.94
2023-05-12T09:17:00,mfh,87.48
2023-05-12T09:18:00,mfh,87.62
2023-05-12T09:19:00,mfh,87.78
2023-05-12T09:20:00,mfh,87.53
2023-05-12T09:21:00,mfh,87.44
2023-05-12T09:22:00,mfh,87.40
2023-05-12T09:23:00,mfh,87.41
2023-05-12T09:24:00,mfh,87.38
2023-05-12T09:25:00,mfh,87.42
2023-05-12T09:26:00,mfh,87.38
2023-05-12T09:27:00,mfh,87.32
2023-05-12T09:28:00,mfh,87.63
2023-05-12T09:29:00,mfh,87.50
2023-05-12T09:30:00,mfh,87.53
2023-05-12T09:31:00,mfh,87.51
2023-05-12T09:32:00,mfh,87.58
2023-05-12T09:33:00,mfh,87.49
2023-05-12T09:34:00,mfh,87.47
2023-05-12T09:35:00,mfh,87.52
2023-05-12T09:36:00,mfh,87.54
2023-05-12T09:37:00,mfh,87.24
2023-05-12T09:38:00,mfh,87.14
2023-05-12T09:39:00,mfh,87.16
2023-05-12T09:40:00,mfh,87.28
2023-05-12T09:41:00,mfh,87.39
2023-05-12T09:42:00,mfh,87.17
2023-05-12T09:43:00,mfh,84.18
2023-05-12T09:44:00,mfh,84.23
2023-05-12T09:45:00,mfh,84.26
2023-05-12T09:46:00,mfh,84.28
2023-05-12T09:47:00,mfh,83.97
2023-05-12T09:48:00,mfh,83.98
2023-05-12T09:49:00,mfh,85.12
2023-05-12T09:50:00,mfh,85.42
2023-05-12T09:51:00,mfh,85.58
2023-05-12T09:52:00,mfh,85.51
2023-05-12T09:53:00,mfh,85.60
2023-05-12T09:54:00,mfh,85.66
2023-05-12T09:55:00,mfh,85.57
2023-05-12T09:56:00,mfh,85.59
2023-05-12T09:57:00,mfh,85.36
2023-05-12T09:58:00,mfh,85.27
2023-05-12T09:59:00,mfh,85.26
2023-05-12T10:00:00,mfh,85.29
2023-05-12T10:01:00,mfh,85.29
2023-05-12T10:02:00,mfh,87.92
2023-05-12T10:03:00,mfh,87.91
2023-05-12T10:04:00,mfh,87.97
2023-05-12T10:05:00,mfh,87.78
2023-05-12T10:06:00,mfh,87.67
2023-05-12T10:07:00,mfh,87.62
2023-05-12T10:08:00,mfh,87.52
2023-05-12T10:09:00,mfh,87.42
2023-05-12T10:10:00,mfh,87.49
2023-05-12T10:11:00,mfh,87.34
2023-05-12T10:12:00,mfh,87.29
2023-05-12T10:13:00,mfh,87.26
2023-05-12T10:14:00,mfh,87.57
2023-05-12T10:15:00,mfh,87.34
2023-05-12T10:16:00,mfh,87.27
2023-05-12T10:17:00,mfh,86.77
2023-05-12T10:18:00,mfh,85.23
2023-05-12T10:19:00,mfh,87.36
2023-05-12T10:20:00,mfh,88.21
2023-05-12T10:21:00,mfh,87.34
2023-05-12T10:22:00,mfh,87.27
2023-05-12T10:23:00,mfh,87.26
2023-05-12T10:24:00,mfh,87.44
2023-05-12T10:25:00,mfh,87.44
2023-05-12T10:26:00,mfh,87.89
2023-05-12T10:27:00,mfh,87.72
2023-05-12T10:28:00,mfh,87.76
2023-05-12T10:29:00,mfh,87.67
2023-05-12T10:30:00,mfh,87.61
2023-05-12T10:31:00,mfh,87.54
2023-05-12T10:32:00,mfh,87.47
2023-05-12T10:33:00,mfh,87.51
2023-05-12T10:34:00,mfh,87.79
2023-05-12T10:35:00,mfh,87.79
2023-05-12T10:36:00,mfh,87.76
2023-05-12T10:37:00,mfh,85.52
2023-05-12T10:38:00,mfh,85.38
2023-05-12T10:39:00,mfh,85.26
2023-05-12T10:40:00,mfh,85.36
2023-05-12T10:41:00,mfh,85.52
2023-05-12T10:42:00,mfh,85.15
2023-05-12T10:43:00,mfh,85.11
2023-05-12T10:44:00,mfh,85.15
2023-05-12T10:45:00,mfh,85.69
2023-05-12T10:46:00,mfh,88.00
2023-05-12T10:47:00,mfh,87.89
2023-05-12T10:48:00,mfh,88.00
2023-05-12T10:49:00,mfh,87.90
2023-05-12T10:50:00,mfh,87.75
2023-05-12T10:51:00,mfh,87.72
2023-05-12T10:52:00,mfh,87.45
2023-05-12T10:53:00,mfh,87.47
2023-05-12T10:54:00,mfh,87.45
2023-05-12T10:55:00,mfh,87.43
2023-05-12T10:56:00,mfh,87.62
2023-05-12T10:57:00,mfh,87.58
2023-05-12T10:58:00,mfh,87.67
2023-05-12T10:59:00,mfh,87.58
2023-05-12T11:00:00,mfh,87.64
2023-05-12T11:01:00,mfh,87.55
2023-05-12T11:02:00,mfh,87.63
2023-05-12T11:03:00,mfh,87.58
2023-05-12T11:04:00,mfh,87.67
2023-05-12T11:05:00,mfh,87.60
2023-05-12T11:06:00,mfh,87.66
2023-05-12T11:07:00,mfh,87.87
2023-05-12T11:08:00,mfh,87.82
2023-05-12T11:09:00,mfh,87.88
2023-05-12T11:10:00,mfh,87.90
2023-05-12T11:11:00,mfh,87.95
2023-05-12T11:12:00,mfh,87.70
2023-05-12T11:13:00,mfh,87.42
2023-05-12T11:14:00,mfh,87.36
2023-05-12T11:15:00,mfh,87.23
2023-05-12T11:16:00,mfh,87.36
2023-05-12T11:17:00,mfh,87.45
2023-05-12T11:18:00,mfh,87.59
2023-05-12T11:19:00,mfh,87.58
2023-05-12T11:20:00,mfh,87.87
2023-05-12T11:21:00,mfh,87.82
2023-05-12T11:22:00,mfh,87.63
2023-05-12T11:23:00,mfh,87.69
2023-05-12T11:24:00,mfh,85.66
2023-05-12T11:25:00,mfh,85.57
2023-05-12T11:26:00,mfh,85.45
2023-05-12T11:27:00,mfh,86.05
2023-05-12T11:28:00,mfh,85.48
2023-05-12T11:29:00,mfh,85.65
2023-05-12T11:30:00,mfh,85.74
2023-05-12T11:31:00,mfh,88.11
2023-05-12T11:32:00,mfh,88.06
2023-05-12T11:33:00,mfh,87.98
2023-05-12T11:34:00,mfh,88.03
2023-05-12T11:35:00,mfh,87.94
2023-05-12T11:36:00,mfh,87.87
2023-05-12T11:37:00,mfh,87.78
2023-05-12T11:38:00,mfh,87.90
2023-05-12T11:39:00,mfh,87.92
2023-05-12T11:40:00,mfh,87.70
2023-05-12T11:41:00,mfh,87.72
2023-05-12T11:42:00,mfh,87.96
2023-05-12T11:43:00,mfh,87.78
2023-05-12T11:44:00,mfh,87.78
2023-05-12T11:45:00,mfh,87.84
2023-05-12T11:46:00,mfh,87.73
2023-05-12T11:47:00,mfh,87.73
2023-05-12T11:48:00,mfh,87.70
2023-05-12T11:49:00,mfh,87.75
2023-05-12T11:50:00,mfh,87.84
2023-05-12T11:51:00,mfh,87.75
2023-05-12T11:52:00,mfh,87.71
2023-05-12T11:53:00,mfh,87.70
2023-05-12T11:54:00,mfh,87.67
2023-05-12T11:55:00,mfh,87.72
2023-05-12T11:56:00,mfh,87.68
2023-05-12T11:57:00,mfh,87.60
2023-05-12T11:58:00,mfh,87.70
2023-05-12T11:59:00,mfh,87.46
2023-05-12T12:00:00,mfh,87.51
2023-05-12T12:01:00,mfh,87.51
2023-05-12T12:02:00,mfh,87.56
2023-05-12T12:03:00,mfh,87.59
2023-05-12T12:04:00,mfh,87.81
2023-05-12T12:05:00,mfh,87.95
2023-05-12T12:06:00,mfh,85.67
2023-05-12T12:07:00,mfh,85.67
2023-05-12T12:08:00,mfh,85.60
2023-05-12T12:09:00,mfh,85.68
2023-05-12T12:10:00,mfh,85.53
2023-05-12T12:11:00,mfh,85.76
2023-05-12T12:12:00,mfh,85.61
2023-05-12T12:13:00,mfh,85.97
2023-05-12T12:14:00,mfh,86.13
2023-05-12T12:15:00,mfh,88.42
2023-05-12T12:16:00,mfh,88.39
2023-05-12T12:17:00,mfh,88.31
2023-05-12T12:18:00,mfh,88.32
2023-05-12T12:19:00,mfh,88.17
2023-05-12T12:20:00,mfh,87.98
2023-05-12T12:21:00,mfh,88.02
2023-05-12T12:22:00,mfh,87.96
2023-05-12T12:23:00,mfh,88.06
2023-05-12T12:24:00,mfh,87.56
2023-05-12T12:25:00,mfh,87.53
2023-05-12T12:26:00,mfh,88.03
2023-05-12T12:27:00,mfh,88.21
2023-05-12T12:28:00,mfh,88.08
2023-05-12T12:29:00,mfh,88.34
2023-05-12T12:30:00,mfh,88.44
2023-05-12T12:31:00,mfh,88.21
2023-05-12T12:32:00,mfh,88.12
2023-05-12T12:33:00,mfh,88.17
2023-05-12T12:34:00,mfh,88.08
2023-05-12T12:35:00,mfh,88.25
2023-05-12T12:36:00,mfh,88.25
2023-05-12T12:37:00,mfh,88.17
2023-05-12T12:38:00,mfh,88.12
2023-05-12T12:39:00,mfh,88.34
2023-05-12T12:40:00,mfh,88.12
2023-05-12T12:41:00,mfh,88.00
2023-05-12T12:42:00,mfh,88.28
2023-05-12T12:43:00,mfh,88.05
2023-05-12T12:44:00,mfh,88.27
2023-05-12T12:45:00,mfh,86.13
2023-05-12T12:46:00,mfh,86.08
2023-05-12T12:47:00,mfh,86.32
2023-05-12T12:48:00,mfh,86.11
2023-05-12T12:49:00,mfh,86.06
2023-05-12T12:50:00,mfh,86.07
2023-05-12T12:51:00,mfh,88.18
2023-05-12T12:52:00,mfh,88.19
2023-05-12T12:53:00,mfh,88.13
2023-05-12T12:54:00,mfh,88.09
2023-05-12T12:55:00,mfh,88.21
2023-05-12T12:56:00,mfh,88.19
2023-05-12T12:57:00,mfh,88.35
2023-05-12T12:58:00,mfh,88.32
2023-05-12T12:59:00,mfh,88.42
2023-05-12T13:00:00,mfh,88.23
2023-05-12T13:01:00,mfh,88.37
2023-05-12T13:02:00,mfh,88.34
2023-05-12T13:03:00,mfh,88.40
2023-05-12T13:04:00,mfh,88.01
2023-05-12T13:05:00,mfh,88.04
2023-05-12T13:06:00,mfh,88.00
2023-05-12T13:07:00,mfh,88.10
2023-05-12T13:08:00,mfh,88.11
2023-05-12T13:09:00,mfh,88.07
2023-05-12T13:10:00,mfh,87.87
2023-05-12T13:11:00,mfh,87.97
2023-05-12T13:12:00,mfh,88.06
2023-05-12T13:13:00,mfh,88.06
2023-05-12T13:14:00,mfh,88.04
2023-05-12T13:15:00,mfh,87.92
2023-05-12T13:16:00,mfh,87.97
2023-05-12T13:17:00,mfh,87.78
2023-05-12T13:18:00,mfh,87.84